VKG804 ESGG-LGRP

Flight info

Callsign VKG804
Flight time N/A
Altitude 33000
Route TOPLA L996 ATRIB DCT SALLO DCT BINKA DCT KELOD DCT KULUV DCT VALPI/N0448F350 DCT TEKVI DCT BUD DCT BUG DCT PARAK DCT IRGOR DCT IBISI DCT RUGAS UN128 FSK DCT KOROS DCT MES UN139 LURUS UL995 CODIC
Aircraft A321/M-SDE3FGHIRWY/LB1

Departure

Time N/A
Airport Göteborg Landvetter Airport (ESGG)

Arrival

Time 2026-04-29 11:40
Airport Rhodes International Airport "Diagoras" (LGRP)
Time Latitude Longitude Altitude Speed Heading
2026-04-29 10:00 45.63680 20.34813 33221 ft 490 kts 169°
2026-04-29 10:00 45.60444 20.36357 33217 ft 490 kts 169°
2026-04-29 10:01 45.53975 20.39424 33202 ft 489 kts 169°
2026-04-29 10:01 45.47544 20.42469 33167 ft 489 kts 168°
2026-04-29 10:02 45.41070 20.45536 33194 ft 492 kts 168°
2026-04-29 10:02 45.34557 20.48610 33196 ft 493 kts 168°
2026-04-29 10:03 45.28043 20.51684 33204 ft 493 kts 168°
2026-04-29 10:03 45.21531 20.54757 33188 ft 493 kts 168°
2026-04-29 10:04 45.15020 20.57812 33563 ft 492 kts 168°
2026-04-29 10:04 45.11780 20.59322 33873 ft 492 kts 169°
2026-04-29 10:04 45.08517 20.60841 34164 ft 491 kts 169°
2026-04-29 10:05 45.05277 20.62354 34411 ft 490 kts 168°
2026-04-29 10:05 45.02093 20.63845 34702 ft 488 kts 168°
2026-04-29 10:05 44.98864 20.65354 34962 ft 487 kts 168°
2026-04-29 10:05 44.95647 20.66852 35142 ft 487 kts 168°
2026-04-29 10:06 44.89216 20.69843 35181 ft 486 kts 168°
2026-04-29 10:06 44.82793 20.72829 35175 ft 485 kts 168°
2026-04-29 10:07 44.76377 20.75779 35173 ft 485 kts 169°
2026-04-29 10:07 44.69957 20.78761 35174 ft 486 kts 167°
2026-04-29 10:08 44.63634 20.82067 35175 ft 488 kts 165°
2026-04-29 10:08 44.57295 20.85566 35161 ft 488 kts 165°
2026-04-29 10:09 44.51019 20.88957 35163 ft 487 kts 166°
2026-04-29 10:09 44.44661 20.92287 35168 ft 486 kts 166°
2026-04-29 10:10 44.38313 20.95579 35144 ft 486 kts 166°
2026-04-29 10:10 44.31979 20.98874 35176 ft 485 kts 166°
2026-04-29 10:11 44.25689 21.02171 35174 ft 486 kts 165°
2026-04-29 10:11 44.19346 21.05490 35176 ft 486 kts 166°
2026-04-29 10:12 44.13025 21.08773 35155 ft 485 kts 165°
2026-04-29 10:12 44.06695 21.12050 35163 ft 485 kts 165°
2026-04-29 10:13 44.00371 21.15322 35167 ft 484 kts 166°
2026-04-29 10:13 43.94063 21.18580 35140 ft 484 kts 165°
2026-04-29 10:14 43.87748 21.21833 35144 ft 484 kts 165°
2026-04-29 10:14 43.81442 21.25084 35147 ft 484 kts 165°
2026-04-29 10:15 43.75132 21.28320 35151 ft 483 kts 165°
2026-04-29 10:15 43.68869 21.31522 35139 ft 483 kts 165°
2026-04-29 10:16 43.63585 21.34220 35136 ft 483 kts 165°
2026-04-29 10:16 43.56261 21.37953 35136 ft 483 kts 165°
2026-04-29 10:17 43.49950 21.41165 35121 ft 482 kts 165°
2026-04-29 10:17 43.43661 21.44343 35127 ft 482 kts 165°
2026-04-29 10:18 43.37394 21.47513 35128 ft 482 kts 165°
2026-04-29 10:18 43.31116 21.50684 35106 ft 481 kts 165°
2026-04-29 10:19 43.24830 21.53849 35105 ft 481 kts 165°
2026-04-29 10:19 43.18563 21.57006 35113 ft 481 kts 165°
2026-04-29 10:20 43.12272 21.60159 35115 ft 480 kts 165°
2026-04-29 10:20 43.05997 21.63299 35093 ft 480 kts 165°
2026-04-29 10:21 42.99706 21.66435 35097 ft 480 kts 165°
2026-04-29 10:21 42.93521 21.69971 35098 ft 485 kts 157°
2026-04-29 10:22 42.87525 21.74201 35080 ft 485 kts 157°
2026-04-29 10:22 42.81521 21.78379 35097 ft 485 kts 157°
2026-04-29 10:23 42.75538 21.82525 35105 ft 485 kts 157°
2026-04-29 10:23 42.69539 21.86696 35108 ft 485 kts 157°
2026-04-29 10:24 42.63531 21.90863 35112 ft 485 kts 157°
2026-04-29 10:24 42.57507 21.95019 35109 ft 484 kts 157°
2026-04-29 10:25 42.51503 21.99152 35106 ft 485 kts 157°
2026-04-29 10:25 42.45482 22.03291 35109 ft 485 kts 157°
2026-04-29 10:26 42.39466 22.07434 35107 ft 484 kts 157°
2026-04-29 10:26 42.33470 22.11547 35114 ft 483 kts 157°
2026-04-29 10:27 42.24466 22.17695 35114 ft 482 kts 157°
2026-04-29 10:28 42.18485 22.21773 35106 ft 481 kts 157°
2026-04-29 10:28 42.12495 22.25837 35107 ft 481 kts 157°
2026-04-29 10:29 42.06522 22.29873 35107 ft 480 kts 157°
2026-04-29 10:29 42.00555 22.33918 35106 ft 481 kts 157°
2026-04-29 10:30 41.94587 22.37964 35100 ft 480 kts 157°
2026-04-29 10:30 41.88648 22.41978 35101 ft 480 kts 157°
2026-04-29 10:31 41.82633 22.46025 35100 ft 480 kts 157°
2026-04-29 10:31 41.76701 22.50009 35096 ft 480 kts 157°
2026-04-29 10:32 41.70734 22.54009 35113 ft 479 kts 157°
2026-04-29 10:32 41.64777 22.57989 35118 ft 479 kts 157°
2026-04-29 10:33 41.58808 22.61963 35124 ft 479 kts 157°
2026-04-29 10:33 41.52858 22.65926 35107 ft 478 kts 157°
2026-04-29 10:34 41.46903 22.69889 35114 ft 478 kts 157°
2026-04-29 10:34 41.40951 22.73843 35121 ft 478 kts 157°
2026-04-29 10:35 41.34995 22.77781 35121 ft 477 kts 157°
2026-04-29 10:35 41.30215 22.81491 35110 ft 480 kts 149°
2026-04-29 10:36 41.24632 22.86360 35119 ft 480 kts 149°
2026-04-29 10:36 41.19074 22.91183 35118 ft 479 kts 149°
2026-04-29 10:37 41.13452 22.96051 35114 ft 479 kts 150°
2026-04-29 10:37 41.07895 23.00915 35108 ft 480 kts 147°
2026-04-29 10:38 41.02533 23.06197 35097 ft 481 kts 144°
2026-04-29 10:38 40.97266 23.11667 35107 ft 480 kts 144°
2026-04-29 10:39 40.91968 23.17048 35117 ft 480 kts 145°
2026-04-29 10:39 40.86615 23.22335 35120 ft 480 kts 146°
2026-04-29 10:40 40.81255 23.27587 35123 ft 480 kts 146°
2026-04-29 10:40 40.75897 23.32856 35123 ft 480 kts 145°
2026-04-29 10:41 40.70564 23.38120 35132 ft 479 kts 145°
2026-04-29 10:41 40.65261 23.43354 35145 ft 479 kts 145°
2026-04-29 10:42 40.59919 23.48600 35142 ft 478 kts 145°
2026-04-29 10:42 40.54581 23.53831 35130 ft 478 kts 146°
2026-04-29 10:43 40.49245 23.59038 35135 ft 478 kts 146°
2026-04-29 10:43 40.43910 23.64234 35147 ft 477 kts 146°
2026-04-29 10:44 40.38587 23.69426 35147 ft 476 kts 145°
2026-04-29 10:44 40.33267 23.74608 35144 ft 476 kts 146°
2026-04-29 10:45 40.27945 23.79761 35145 ft 476 kts 146°
2026-04-29 10:45 40.22623 23.84903 35143 ft 476 kts 146°
2026-04-29 10:46 40.17300 23.90049 35146 ft 475 kts 146°
2026-04-29 10:46 40.11972 23.95188 35140 ft 476 kts 146°
2026-04-29 10:47 40.06645 24.00324 35141 ft 475 kts 146°
2026-04-29 10:47 40.01322 24.05439 35131 ft 475 kts 146°
2026-04-29 10:48 39.96070 24.10467 35135 ft 475 kts 146°
2026-04-29 10:48 39.90669 24.15622 35142 ft 474 kts 146°
2026-04-29 10:49 39.85344 24.20701 35141 ft 474 kts 146°
2026-04-29 10:49 39.80053 24.25737 35140 ft 474 kts 146°
2026-04-29 10:50 39.74692 24.30834 35137 ft 474 kts 146°
2026-04-29 10:50 39.69366 24.35884 35133 ft 474 kts 146°
2026-04-29 10:51 39.64080 24.40887 35149 ft 473 kts 146°
2026-04-29 10:51 39.58758 24.45924 35144 ft 473 kts 146°
2026-04-29 10:52 39.53445 24.50933 35150 ft 473 kts 146°
2026-04-29 10:52 39.48117 24.55950 35147 ft 473 kts 146°
2026-04-29 10:53 39.42794 24.60956 35149 ft 472 kts 146°
2026-04-29 10:53 39.37477 24.65938 35143 ft 471 kts 146°
2026-04-29 10:54 39.32169 24.70906 35135 ft 471 kts 146°
2026-04-29 10:54 39.26849 24.75886 35134 ft 471 kts 146°
2026-04-29 10:55 39.21539 24.80840 35135 ft 471 kts 146°
2026-04-29 10:55 39.16227 24.85774 35138 ft 471 kts 146°
2026-04-29 10:56 39.10911 24.90715 35139 ft 471 kts 145°
2026-04-29 10:56 39.05990 24.96310 35138 ft 472 kts 139°
2026-04-29 10:57 39.01150 25.02034 35138 ft 472 kts 139°
2026-04-29 10:57 38.96310 25.07751 35125 ft 473 kts 139°
2026-04-29 10:58 38.91466 25.13463 35130 ft 473 kts 139°
2026-04-29 10:58 38.86614 25.19171 35131 ft 473 kts 139°
2026-04-29 10:59 38.81819 25.24810 35133 ft 473 kts 139°
2026-04-29 10:59 38.76968 25.30510 35134 ft 473 kts 139°
2026-04-29 11:00 38.72118 25.36195 35133 ft 473 kts 139°
2026-04-29 11:00 38.67249 25.41872 35121 ft 473 kts 139°
2026-04-29 11:01 38.62388 25.47533 35126 ft 473 kts 139°
2026-04-29 11:01 38.57527 25.53193 35122 ft 472 kts 139°
2026-04-29 11:02 38.52668 25.58838 35120 ft 472 kts 139°
2026-04-29 11:02 38.47804 25.64472 35119 ft 472 kts 139°
2026-04-29 11:03 38.42948 25.70092 35117 ft 472 kts 140°
2026-04-29 11:03 38.38075 25.75710 35104 ft 471 kts 139°
2026-04-29 11:04 38.33218 25.81313 35104 ft 471 kts 139°
2026-04-29 11:04 38.28359 25.86906 35100 ft 470 kts 140°
2026-04-29 11:05 38.22954 25.91466 35092 ft 465 kts 158°
2026-04-29 11:05 38.16922 25.94318 35090 ft 462 kts 163°
2026-04-29 11:06 38.10903 25.97072 35083 ft 463 kts 163°
2026-04-29 11:06 38.04808 25.99858 35093 ft 463 kts 163°
2026-04-29 11:07 37.98777 26.02604 35096 ft 463 kts 163°
2026-04-29 11:07 37.92715 26.05354 35095 ft 462 kts 163°
2026-04-29 11:08 37.86659 26.08094 35075 ft 462 kts 163°
2026-04-29 11:08 37.80598 26.10834 35078 ft 462 kts 163°
2026-04-29 11:09 37.74541 26.13565 35075 ft 462 kts 163°
2026-04-29 11:09 37.68488 26.16291 35076 ft 462 kts 163°
2026-04-29 11:10 37.62429 26.19013 35079 ft 462 kts 163°
2026-04-29 11:10 37.56402 26.21709 35078 ft 462 kts 163°
2026-04-29 11:11 37.50331 26.24420 35076 ft 462 kts 163°
2026-04-29 11:11 37.44272 26.27132 35073 ft 462 kts 163°
2026-04-29 11:12 37.38212 26.29842 35073 ft 462 kts 163°
2026-04-29 11:12 37.32165 26.32537 35073 ft 461 kts 163°
2026-04-29 11:13 37.26111 26.35228 35073 ft 461 kts 163°
2026-04-29 11:13 37.20066 26.37908 35068 ft 460 kts 163°
2026-04-29 11:14 37.14029 26.40582 35051 ft 460 kts 163°
2026-04-29 11:14 37.07985 26.43270 35050 ft 460 kts 163°
2026-04-29 11:15 37.01945 26.45945 35052 ft 460 kts 163°
2026-04-29 11:15 36.95945 26.48609 35048 ft 461 kts 160°
2026-04-29 11:16 36.90467 26.52786 35030 ft 467 kts 139°
2026-04-29 11:16 36.86444 26.59152 35030 ft 471 kts 118°
2026-04-29 11:17 36.83803 26.66647 35021 ft 472 kts 114°
2026-04-29 11:17 36.81205 26.74193 35019 ft 473 kts 114°
2026-04-29 11:18 36.78597 26.81743 34755 ft 475 kts 114°
2026-04-29 11:18 36.77282 26.85550 33793 ft 483 kts 114°
2026-04-29 11:18 36.76397 26.88115 33148 ft 486 kts 114°
2026-04-29 11:18 36.75062 26.91984 32236 ft 488 kts 114°
2026-04-29 11:19 36.73710 26.95886 31384 ft 489 kts 114°
2026-04-29 11:19 36.72356 26.99786 30411 ft 491 kts 114°
2026-04-29 11:19 36.71015 27.03631 29775 ft 476 kts 114°
2026-04-29 11:19 36.69715 27.07349 29168 ft 461 kts 114°
2026-04-29 11:20 36.68442 27.10999 28568 ft 457 kts 114°
2026-04-29 11:20 36.67185 27.14618 28012 ft 453 kts 114°
2026-04-29 11:20 36.65939 27.18199 27457 ft 449 kts 114°
2026-04-29 11:20 36.64298 27.22895 26735 ft 444 kts 114°
2026-04-29 11:21 36.63465 27.25269 26361 ft 441 kts 114°
2026-04-29 11:21 36.62242 27.28749 25824 ft 438 kts 114°
2026-04-29 11:21 36.61022 27.32211 25292 ft 435 kts 114°
2026-04-29 11:21 36.59811 27.35642 24757 ft 432 kts 114°
2026-04-29 11:22 36.58610 27.39055 24245 ft 428 kts 114°
2026-04-29 11:22 36.57433 27.42395 23750 ft 425 kts 114°
2026-04-29 11:22 36.56251 27.45751 23210 ft 422 kts 114°
2026-04-29 11:22 36.55085 27.49062 22737 ft 416 kts 114°
2026-04-29 11:23 36.53917 27.52373 22282 ft 410 kts 114°
2026-04-29 11:23 36.52791 27.55564 21858 ft 404 kts 114°
2026-04-29 11:23 36.51667 27.58734 21445 ft 398 kts 114°
2026-04-29 11:23 36.50556 27.61857 21022 ft 393 kts 114°
2026-04-29 11:24 36.49456 27.64944 20605 ft 388 kts 114°
2026-04-29 11:24 36.48370 27.67997 20185 ft 385 kts 114°
2026-04-29 11:24 36.47281 27.71025 19775 ft 381 kts 115°
2026-04-29 11:24 36.46106 27.73963 19322 ft 379 kts 118°
2026-04-29 11:25 36.44850 27.76833 18872 ft 377 kts 120°
2026-04-29 11:25 36.43555 27.79663 18424 ft 376 kts 120°
2026-04-29 11:25 36.42256 27.82476 17929 ft 375 kts 120°
2026-04-29 11:25 36.40972 27.85283 17468 ft 373 kts 120°
2026-04-29 11:26 36.38480 27.90834 16552 ft 368 kts 119°
2026-04-29 11:26 36.37251 27.93606 16102 ft 366 kts 119°
2026-04-29 11:26 36.36028 27.96373 15646 ft 364 kts 118°
2026-04-29 11:27 36.34815 27.99124 15195 ft 363 kts 118°
2026-04-29 11:27 36.33603 28.01865 14745 ft 362 kts 118°
2026-04-29 11:27 36.32388 28.04598 14289 ft 361 kts 118°
2026-04-29 11:27 36.31177 28.07312 13842 ft 360 kts 118°
2026-04-29 11:28 36.29967 28.10020 13344 ft 359 kts 118°
2026-04-29 11:28 36.28762 28.12721 12878 ft 357 kts 118°
2026-04-29 11:28 36.27566 28.15406 12423 ft 354 kts 118°
2026-04-29 11:28 36.26377 28.18077 11954 ft 353 kts 118°
2026-04-29 11:29 36.25195 28.20725 11488 ft 351 kts 118°
2026-04-29 11:29 36.24013 28.23365 11022 ft 349 kts 118°
2026-04-29 11:29 36.22853 28.25957 10548 ft 348 kts 118°
2026-04-29 11:29 36.21885 28.28600 10408 ft 326 kts 104°
2026-04-29 11:30 36.21648 28.31282 10268 ft 304 kts 84°
2026-04-29 11:30 36.22100 28.33782 10184 ft 295 kts 66°
2026-04-29 11:30 36.23136 28.35938 10054 ft 291 kts 47°
2026-04-29 11:30 36.24536 28.37691 9846 ft 292 kts 43°
2026-04-29 11:31 36.26030 28.39494 9268 ft 297 kts 43°
2026-04-29 11:31 36.27509 28.41285 8780 ft 298 kts 43°
2026-04-29 11:31 36.29115 28.42884 8317 ft 297 kts 29°
2026-04-29 11:31 36.31006 28.43858 7843 ft 291 kts 13°
2026-04-29 11:32 36.32984 28.44158 7388 ft 283 kts
2026-04-29 11:32 36.34926 28.44296 6955 ft 275 kts
2026-04-29 11:32 36.36795 28.44436 6537 ft 264 kts
2026-04-29 11:32 36.38594 28.44573 6119 ft 254 kts
2026-04-29 11:33 36.40289 28.44702 5761 ft 241 kts
2026-04-29 11:33 36.41938 28.44828 5345 ft 234 kts
2026-04-29 11:33 36.43529 28.44657 4984 ft 229 kts 341°
2026-04-29 11:33 36.44912 28.43721 4631 ft 227 kts 317°
2026-04-29 11:34 36.45865 28.42183 4263 ft 224 kts 294°
2026-04-29 11:34 36.46259 28.40349 3894 ft 216 kts 276°
2026-04-29 11:34 36.46442 28.38556 3791 ft 202 kts 277°
2026-04-29 11:34 36.46614 28.36868 3730 ft 192 kts 277°
2026-04-29 11:35 36.46781 28.35250 3645 ft 188 kts 277°
2026-04-29 11:35 36.46947 28.33647 3564 ft 187 kts 277°
2026-04-29 11:35 36.47088 28.32041 3476 ft 187 kts 270°
2026-04-29 11:35 36.46855 28.30450 3307 ft 187 kts 253°
2026-04-29 11:36 36.46450 28.28937 3067 ft 187 kts 251°
2026-04-29 11:36 36.46015 28.27418 2826 ft 187 kts 251°
2026-04-29 11:36 36.45578 28.25908 2583 ft 183 kts 251°
2026-04-29 11:36 36.45154 28.24450 2349 ft 177 kts 251°
2026-04-29 11:37 36.44739 28.23024 2119 ft 175 kts 252°
2026-04-29 11:37 36.44328 28.21612 1901 ft 173 kts 252°
2026-04-29 11:37 36.43927 28.20237 1671 ft 165 kts 252°
2026-04-29 11:37 36.43548 28.18939 1454 ft 153 kts 253°
2026-04-29 11:38 36.43195 28.17732 1260 ft 146 kts 253°
2026-04-29 11:38 36.42851 28.16560 1056 ft 144 kts 253°
2026-04-29 11:38 36.42513 28.15404 884 ft 141 kts 252°
2026-04-29 11:38 36.42184 28.14264 703 ft 139 kts 252°
2026-04-29 11:39 36.41859 28.13135 516 ft 138 kts 252°
2026-04-29 11:39 36.41531 28.12018 366 ft 137 kts 249°
2026-04-29 11:39 36.41210 28.10918 184 ft 135 kts 249°
2026-04-29 11:39 36.40890 28.09833 26 ft 129 kts 250°
2026-04-29 11:40 36.40648 28.09004 28 ft 74 kts 250°
2026-04-29 11:40 36.40526 28.08588 24 ft 38 kts 250°
2026-04-29 11:40 36.40440 28.08294 25 ft 35 kts 250°
2026-04-29 11:40 36.40364 28.08061 26 ft 22 kts 238°
2026-04-29 11:41 36.40260 28.07938 28 ft 14 kts 219°
2026-04-29 11:41 36.40200 28.07875 25 ft 11 kts 220°
2026-04-29 11:41 36.40152 28.07869 22 ft 6 kts 133°
2026-04-29 11:41 36.40153 28.07936 29 ft 11 kts 73°
2026-04-29 11:42 36.40182 28.08040 27 ft 14 kts 70°
2026-04-29 11:42 36.40215 28.08148 27 ft 12 kts 70°
2026-04-29 11:42 36.40242 28.08241 27 ft 11 kts 70°
2026-04-29 11:42 36.40269 28.08330 28 ft 11 kts 70°
2026-04-29 11:43 36.40299 28.08435 28 ft 15 kts 70°
2026-04-29 11:43 36.40336 28.08559 28 ft 15 kts 70°
2026-04-29 11:43 36.40368 28.08670 29 ft 12 kts 70°
2026-04-29 11:43 36.40395 28.08765 29 ft 11 kts 73°
2026-04-29 11:44 36.40400 28.08852 29 ft 9 kts 91°
2026-04-29 11:44 36.40397 28.08923 29 ft 7 kts 94°
2026-04-29 11:44 36.40398 28.08979 29 ft 6 kts 82°
2026-04-29 11:44 36.40410 28.09037 29 ft 6 kts 75°
2026-04-29 11:45 36.40397 28.09068 29 ft 4 kts 146°
2026-04-29 11:45 36.40376 28.09078 29 ft 3 kts 160°
2026-04-29 11:45 36.40361 28.09085 29 ft 0 kts 160°